Location: Unspecified
(45.3712°N, 0.6436°E)
Time: 02:41:09
(UTC+01:00)

OTV 5 (USA 277) - Visible Passes

Search period start: 21 November 2018 00:00
Search period end: 01 December 2018 00:00
Orbit: 339 x 348 km, 54.5° (Epoch: 14 November)

Date Brightness Start Highest point End Pass type
(mag) Time Alt. Az. Time Alt. Az. Time Alt. Az.
23 Nov ? 07:16:24 10° SSE 07:17:43 12° SE 07:19:02 10° ESE visible
25 Nov ? 06:28:44 10° SSE 06:29:53 12° SE 06:31:03 10° ESE visible
26 Nov ? 06:50:27 10° SSW 06:53:06 34° SE 06:55:46 10° ENE visible
27 Nov ? 05:41:28 11° SE 05:42:01 11° SE 05:43:00 10° ESE visible
27 Nov ? 07:13:38 10° WSW 07:16:30 75° NW 07:19:23 10° NE visible
28 Nov ? 06:05:14 32° SE 06:05:14 32° SE 06:07:50 10° ENE visible
29 Nov ? 06:28:39 78° NNW 06:28:39 78° NNW 06:31:29 10° NE visible
30 Nov ? 06:51:49 30° NW 06:52:09 31° NNW 06:54:47 10° NE visible
